Regional Weather Roundup
Issued by NWS Newport/Morehead, NC

Current Version | Previous Version | Graphics & Text | Print | Product List | Glossary Off
Versions: 1 2 3 4 5 6 7 8 9 10 11 12 13 14 15 16 17 18 19 20 21 22 23 24 25 26 27 28 29 30 31 32 33 34 35 36 37 38 39 40 41 42 43 44 45 46 47 48 49 50
136 ASUS42 KMHX 271225 RWRMHX WEATHER ROUNDUP FOR EASTERN NORTH CAROLINA NATIONAL WEATHER SERVICE NEWPORT/MOREHEAD CITY NC 800 AM EDT MON MAR 27 2017 NOTE: "FAIR" INDICATES FEW OR NO CLOUDS BELOW 12,000 FEET WITH NO SIGNIFICANT WEATHER AND/OR OBSTRUCTIONS TO VISIBILITY NCZ015>017-031-032-045>047-102-103-271300- NORTH COAST CITY SKY/WX TMP DP RH WIND PRES REMARKS EDENTON SUNNY 54 52 94 CALM 30.17 ELIZABETH CITY SUNNY 58 55 90 S5 30.16R KITTY HAWK NOT AVBL MANTEO SUNNY 56 56 97 CALM 30.18R $$ NCZ045>047-081-094-103-104-271300- CENTRAL COAST CITY SKY/WX TMP DP RH WIND PRES REMARKS FRISCO SUNNY 67 53 61 S5 30.17R HAZE $$ NCZ095-097-098-100-101-271300- SOUTHERN COAST CITY SKY/WX TMP DP RH WIND PRES REMARKS BEAUFORT SUNNY 60 58 92 CALM 30.16R CEDAR ISLAND NOT AVBL JACKSONVILLE SUNNY 53 53 100 CALM 30.16R PINEY ISLAND NOT AVBL WILMINGTON SUNNY 53 53 100 CALM 30.15R $$ NCZ011>013-027>030-043-044-078>080-089-090>093-098-271300- COASTAL PLAIN CITY SKY/WX TMP DP RH WIND PRES REMARKS AHOSKIE N/A 52 51 98 S3 30.15 FOG CLINTON SUNNY 57 56 97 CALM 30.15S ELIZABETHTOWN CLEAR 55 55 100 CALM 30.15R GOLDSBORO SUNNY 55 55 100 CALM 30.14R GREENVILLE MOSUNNY 54 54 100 CALM 30.16S HAVELOCK MOSUNNY 54 52 93 CALM 30.17R KENANSVILLE SUNNY 50 50 100 CALM 30.16R KINSTON SUNNY 54 54 100 CALM 30.17R NEW BERN SUNNY 52 52 100 CALM 30.17R RICHLANDS SUNNY 51 49 92 CALM 30.17R ROCKY MOUNT MOSUNNY 54 54 100 CALM 30.15R WASHINGTON SUNNY 54 53 97 CALM 30.16S WHITEVILLE CLEAR 55 52 91 CALM 30.14R $$ AMZ130-135-150-152-154-156-158-170-250-252-270-ANZ085-086-088-633-658-670-271300- MARINE OBSERVATIONS STATION/POSITION TIME TEMP WIND PRES WAVE SWELL AIR SEA DIR/SP/G HT/PER HT/PER (UTC) (F) (DEG/KT/KT) (MB) (FT/S) (FT/S) CHESAPEAKE LIGHT NOT AVBL 64 E VA BEACH 1150 56 51 180/ 8/ 8 1021.2 4/ 8 3/ 8 DUCK 1200 56 50 190/ 6/ 8 1021.1 2 E DUCK 1200 51 N/A 3/ 7 2/18 OREGON INLET 1200 63 55 170/ 3/ 4 1021.6 13E OREGON INLT 1148 51 N/A 4/ 8 3/ 8 HATTERAS CG 1200 68 60 210/ 4/ 6 1021.4 DIAMOND BUOY 1150 70 76 180/ 8/ 10 1021.5 3/ 9 3/ 9 CAPE LOOKOUT 1200 66 180/ 3/ 3 1021.0 BEAUFORT LAB 1200 61 57 10/ 1/ 2 1020.4 30 SE NEW RVR IN 1208 68 360/ 2/ 4 1021.4 30 SE NEW RVR IN 1213 64 N/A 4/ 9 2/11 27 SE WRIGHTSVLE 1208 67 65 230/ 4/ 8 1020.2 5 SE WRIGHTSVLE 1208 61 59 70/ 4/ 6 1020.8 225 S CAPE HAT 1150 69 72 90/ 10/ 12 1021.0 6/ 9 5/ 9 41 SE CHARLESTON 1150 72 74 180/ 6/ 8 1020.2 4/10 3/10 $$

USA.gov is the U.S. government's official web portal to all federal, state and local government web resources and services.